Location: Oshawa
(43.9000°N, 78.8670°W)
Time: 15:52:00
(UTC-04:00)

Transit 2A Rocket - Visible Passes

Search period start: 26 July 2016 00:00
Search period end: 05 August 2016 00:00
Orbit: 584 x 920 km, 66.7° (Epoch: 25 July)

Date Brightness Start Highest point End Pass type
(mag) Time Alt. Az. Time Alt. Az. Time Alt. Az.
26 Jul 7.6 04:45:52 10° SE 04:49:41 19° ESE 04:53:40 10° ENE visible
27 Jul 8.0 04:07:01 10° ESE 04:07:50 10° E 04:08:40 10° E visible
28 Jul 6.4 05:01:44 10° S 05:07:07 42° ESE 05:12:49 10° NE visible
29 Jul 7.0 04:20:23 10° SSE 04:25:04 26° ESE 04:29:59 10° NE visible
30 Jul 7.5 03:39:48 10° SE 03:43:08 16° ESE 03:46:34 10° ENE visible
30 Jul 5.4 05:19:05 10° SSW 05:24:55 88° WNW 05:31:06 10° NNE visible
31 Jul 5.7 04:37:28 13° SSW 04:42:38 59° ESE 04:48:39 10° NE visible
01 Aug 6.4 03:56:37 17° SSE 04:00:30 37° ESE 04:06:01 10° NE visible
02 Aug 7.0 03:15:44 16° SE 03:18:29 23° ESE 03:23:04 10° ENE visible
02 Aug 5.5 04:55:40 15° SW 05:00:36 67° NW 05:06:44 10° NNE visible
03 Aug 7.4 02:34:47 12° ESE 02:36:35 13° E 02:39:17 10° ENE visible
03 Aug 5.3 04:14:43 26° SSW 04:18:14 81° ESE 04:24:24 10° NNE visible
04 Aug 5.8 03:33:44 33° SSE 03:36:00 51° ESE 03:41:55 10° NE visible
04 Aug 6.4 05:13:39 10° WSW 05:18:56 34° NW 05:24:29 10° NNE visible
